Regional Weather Roundup
Issued by NWS

Home | Current Version | Previous Version | Text Only | Print | Product List | Glossary On
Versions: 1 2 3 4 5 6 7 8 9 10 11 12 13 14 15 16 17 18 19 20 21 22 23 24 25 26 27 28 29 30 31 32 33 34 35 36 37 38 39 40 41 42 43 44 45 46 47 48 49 50
000
ASUS43 KFSD 290410
RWRSD

WEATHER ROUNDUP FOR SOUTH DAKOTA
NATIONAL WEATHER SERVICE SIOUX FALLS SD
1100 PM CDT SAT MAR 28 2015

NOTE: "FAIR" INDICATES FEW OR NO CLOUDS BELOW 12,000 FEET WITH NO
SIGNIFICANT WEATHER AND/OR OBSTRUCTIONS TO VISIBILITY.


SDZ001>005-009-010-012>017-290500-
NORTHWEST AND NORTH CENTRAL SOUTH DAKOTA

CITY           SKY/WX    TMP DP  RH WIND       PRES   REMARKS
BUFFALO          N/A     48  38  68 W16       29.75R
FAITH            N/A     53  38  56 NW31G39   29.76R
MOBRIDGE       LGT RAIN  55  45  68 NW20      29.64R
$$

SDZ012>016-024>037-041>051-057-063-072>074-290500-
SOUTHWEST AND SOUTH CENTRAL SOUTH DAKOTA

CITY           SKY/WX    TMP DP  RH WIND       PRES   REMARKS
RAPID CTY ARPT CLEAR     56  28  34 N35G45    29.78R
PIERRE         MOCLDY    58  35  42 SW10      29.57R
CUSTER         CLEAR     49  28  44 NW12G29   29.85R
ELLSWORTH AFB  CLEAR     56  25  29 NW35G43   29.78R
PHILIP         MOCLDY    61  39  44 NW32G52   29.71R
PINE RIDGE     PTCLDY    60  38  43 N29G41    29.79R
SPEARFISH      FAIR      54  16  22 NW22G32   29.90R
WINNER         FAIR      63  34  33 S36G46    29.59R
$$

SDZ004>011-016>023-039-040-290500-
NORTHEAST SOUTH DAKOTA

CITY           SKY/WX    TMP DP  RH WIND       PRES   REMARKS
ABERDEEN       MOCLDY    49  32  52 S31G39    29.57F
WATERTOWN      CLEAR     43  29  57 S22G31    29.68F
SISSETON         N/A     41  30  65 S20       29.65F
$$

SDZ017-020-022-023-036>040-048>070-290500-
SOUTHEAST SOUTH DAKOTA

CITY           SKY/WX    TMP DP  RH WIND       PRES   REMARKS
SIOUX FALLS    CLEAR     44  29  55 S24G31    29.79F
HURON          PTCLDY    47  32  56 S21G37    29.63F
CHAMBERLAIN    CLEAR     56  35  44 S24G32    29.60S
MITCHELL       CLEAR     48  33  56 S28G39    29.68F
YANKTON        CLEAR     46  32  57 SE23G30   29.78F
$$

ABBREVIATIONS USED IN REMARKS
   TC - TEMPERATURE IN CELSIUS
  WCI - WIND CHILL INDEX
   HX - HEAT INDEX
  VSB - VISIBILITY



USA.gov is the U.S. government's official web portal to all federal, state and local government web resources and services.